Wind_Speed
25 25 26 30 36 38 41 43 44 43 42 39 37 37 36 34 33 31 30 30 29 28 27 27 25 25 25 25 25 26 26 25 28 29 27 26 21 18 20 19 21 21 21 20 17 15 14 15 18 18 13 5 2 3 2 10 11 5 2 3 1 3 3 5 6 6 3 2 5 10 15 13 6 9 12 8 7 8 15 14 10 18 14 9 10 9 21 27
26 27 27 26 29 36 40 41 44 43 43 41 37 37 37 35 35 32 31 31 31 30 29 29 28 27 27 25 24 24 24 24 27 31 30 27 21 18 17 17 19 20 20 18 18 18 14 14 18 18 12 6 2 3 2 5 11 5 3 1 3 4 4 5 6 7 4 2 6 11 14 14 10 13 15 6 6 9 11 11 10 16 17 12 12 11 19 27
25 26 25 26 26 33 40 40 43 45 43 41 38 36 36 35 35 34 34 34 33 32 31 31 29 29 28 25 23 22 24 24 25 29 28 26 23 22 20 18 18 18 18 15 14 18 16 14 16 16 11 5 3 3 1 2 6 3 3 0 4 3 4 5 5 7 7 6 6 11 13 13 11 16 16 8 7 8 9 12 12 16 20 16 14 14 20 27
25 25 24 26 28 30 38 40 41 45 43 41 40 37 36 36 35 36 35 35 35 33 32 32 31 30 29 26 23 22 24 20 22 29 28 27 27 25 23 20 19 16 14 13 12 14 14 14 14 14 11 4 1 4 1 3 3 2 1 3 5 2 3 7 6 6 9 9 8 10 11 10 13 16 16 11 7 4 12 21 20 19 21 19 17 17 21 28
26 26 23 25 29 29 33 39 38 42 44 41 40 38 38 37 37 37 36 36 36 34 33 32 31 30 29 28 24 24 22 10 14 30 29 28 29 25 24 21 20 16 12 12 11 12 13 12 12 12 9 4 1 2 0 5 4 2 3 4 7 4 3 9 8 7 8 8 8 10 10 11 14 14 18 17 9 8 18 24 23 20 19 18 18 19 23 28
27 27 25 23 27 26 26 34 35 38 45 42 40 39 39 39 38 38 37 37 36 34 33 32 31 29 28 27 26 26 23 6 5 26 32 29 29 26 24 22 22 18 13 10 9 11 13 11 11 12 9 3 2 2 1 3 3 2 4 4 7 6 5 12 12 11 9 7 10 11 10 12 15 10 16 21 17 15 15 19 21 19 17 18 19 20 24 28
29 29 28 24 23 22 21 26 28 35 44 42 41 41 39 39 38 37 37 36 36 35 33 32 31 29 29 27 27 27 26 13 1 14 31 31 29 28 25 23 23 20 15 12 10 10 11 12 12 13 10 4 2 3 1 1 1 1 2 4 9 11 10 14 15 14 10 9 12 11 8 11 16 8 10 22 26 18 9 11 17 19 18 19 21 21 23 25
27 29 32 32 28 23 21 23 21 28 41 42 41 42 39 39 38 37 38 37 36 35 32 33 31 30 30 29 29 25 26 24 4 3 26 33 29 29 26 24 22 19 17 15 14 12 9 12 14 12 8 3 7 6 2 2 3 3 2 7 12 14 15 17 16 13 9 9 11 11 8 10 14 6 6 22 28 20 12 8 12 19 20 20 23 23 23 24
25 25 29 35 35 31 26 24 19 23 38 43 43 42 40 39 38 38 38 38 36 35 33 33 32 31 31 30 30 20 22 30 14 3 19 32 31 31 29 26 24 19 17 17 16 15 12 12 15 13 7 6 9 6 4 4 3 1 5 11 14 16 18 17 13 9 7 8 9 10 6 6 10 4 8 22 24 21 18 11 10 17 21 21 22 24 25 26
24 23 26 30 34 34 30 27 22 23 33 41 45 42 40 40 39 39 38 38 37 34 34 33 32 33 31 32 26 13 20 32 22 7 13 27 30 29 30 28 25 21 18 18 16 16 16 14 16 16 9 8 10 7 6 5 2 4 10 13 13 15 15 11 7 5 4 7 9 9 2 2 7 3 7 15 16 21 23 16 13 16 20 21 22 24 26 27
24 24 26 28 30 32 31 28 25 25 27 35 44 42 41 43 40 40 39 38 38 36 35 35 34 34 33 32 23 13 20 31 28 14 10 23 28 25 29 28 25 23 20 19 16 16 16 14 16 15 7 7 10 7 6 5 2 7 11 11 12 13 11 10 8 6 4 4 7 9 2 0 4 3 12 14 11 18 23 20 17 17 20 21 22 23 26 28
23 23 25 28 31 32 31 27 24 26 26 31 43 44 41 44 42 41 40 39 38 37 36 36 35 35 32 29 25 21 20 27 32 20 11 22 27 24 26 26 24 23 21 19 17 16 15 13 17 16 8 9 10 4 6 7 1 7 7 5 9 11 8 9 7 7 5 2 6 9 2 3 3 8 18 14 10 16 21 22 20 19 21 22 23 24 26 28
22 23 24 25 28 33 35 31 26 26 27 25 34 46 45 43 44 42 41 41 40 38 38 37 35 34 29 22 24 27 20 23 31 23 12 20 27 25 25 25 24 23 21 19 18 17 15 14 16 16 11 12 10 5 5 7 1 5 3 2 5 7 6 6 4 6 5 3 7 9 2 6 7 17 20 10 10 16 20 22 21 20 22 24 24 25 27 28
21 23 25 26 26 29 34 37 31 23 23 23 22 40 50 46 45 45 43 43 41 39 38 36 34 34 29 19 22 28 22 19 27 25 17 19 26 26 26 26 25 23 21 18 17 18 16 15 16 15 11 10 11 8 4 2 1 1 1 1 2 1 5 5 2 7 6 3 7 8 3 6 7 16 18 11 12 15 20 22 22 22 23 25 26 26 28 28
21 23 25 27 27 27 30 36 36 25 18 22 21 29 51 53 47 48 46 44 44 40 38 37 35 33 24 15 19 27 24 20 25 26 20 21 27 28 28 27 24 23 20 17 16 17 18 19 18 15 11 8 11 8 2 2 2 2 2 2 1 2 5 7 3 7 5 3 6 7 3 6 8 12 13 13 15 16 21 23 22 23 23 25 27 28 28 28
21 23 24 26 27 27 28 32 37 33 22 22 22 21 42 54 48 50 49 46 45 41 39 37 37 34 18 10 17 24 25 22 25 25 19 22 27 28 28 25 23 22 18 15 15 17 21 20 16 14 11 7 7 5 3 1 0 2 2 3 1 2 3 5 3 4 3 4 3 3 2 3 5 6 6 11 18 18 21 24 24 24 24 25 26 27 29 29
21 24 25 26 29 27 28 30 34 36 28 24 25 19 29 50 52 49 49 47 44 43 42 39 40 33 13 9 17 25 29 26 26 25 19 23 26 26 27 24 22 20 17 15 16 20 22 18 12 8 7 4 4 5 3 4 4 1 1 0 2 3 2 3 4 3 2 5 3 4 4 6 6 4 2 4 12 17 21 24 24 24 25 26 26 28 30 31
20 23 26 28 30 29 28 30 32 36 34 31 30 22 20 40 52 48 48 49 45 43 37 34 36 23 9 18 25 29 35 30 28 26 22 25 25 24 26 24 22 20 18 17 17 19 17 11 7 3 3 3 3 5 5 5 4 4 2 1 2 3 3 4 4 3 2 4 4 5 5 10 10 11 9 5 5 14 21 22 21 23 25 26 28 30 31 32
20 22 26 28 28 30 29 29 31 33 34 35 35 28 20 33 51 49 52 53 43 32 20 31 40 14 7 29 32 31 36 32 28 27 25 28 26 24 24 22 24 25 21 13 10 14 12 6 3 3 4 5 6 7 7 6 6 6 4 3 2 4 4 5 4 4 1 3 5 7 7 10 11 13 12 6 5 10 18 20 20 22 24 25 28 30 31 32
19 22 25 28 28 30 30 31 31 29 29 31 36 34 27 33 35 25 44 54 46 35 20 40 51 13 5 29 33 31 35 32 30 31 28 30 29 25 23 23 24 21 15 9 6 11 12 6 4 6 6 8 9 7 6 5 6 6 4 2 3 3 4 4 3 5 2 3 5 6 8 10 10 11 9 5 5 8 14 19 23 25 24 25 27 29 32 33
18 22 24 27 28 30 31 33 31 29 27 27 33 32 28 31 19 12 41 44 48 43 19 36 48 13 8 28 36 38 34 24 27 34 30 30 31 24 23 23 16 9 7 11 9 8 9 6 5 5 6 9 8 7 6 5 5 5 3 1 3 3 5 5 3 5 3 2 4 2 5 10 10 11 10 6 5 10 16 18 22 25 26 27 28 31 33 33
17 21 24 26 29 29 29 32 30 30 28 25 29 32 35 26 10 25 46 29 37 39 16 34 42 16 14 27 36 42 34 19 17 30 32 33 31 21 19 17 9 5 5 10 9 5 5 5 5 6 8 10 7 7 8 7 6 4 3 2 2 2 4 6 3 5 4 1 4 2 3 9 10 10 11 9 10 16 22 22 23 24 24 27 30 33 34 33
16 20 24 26 30 28 26 30 29 29 30 28 30 34 42 30 5 31 44 17 21 24 16 34 33 20 25 27 35 42 35 22 18 27 33 34 30 23 22 14 7 7 6 7 8 7 5 4 8 11 11 11 8 9 10 8 7 5 3 3 3 2 2 3 3 5 3 1 1 1 2 7 7 7 9 12 16 21 25 25 25 25 23 27 28 29 32 33
15 18 23 25 28 26 22 26 26 27 31 32 35 36 40 35 14 30 31 8 6 11 17 31 28 27 27 26 36 37 29 24 22 29 35 34 29 23 22 16 10 8 7 9 10 8 3 4 13 13 9 10 8 9 10 7 6 5 4 4 2 2 3 3 4 4 2 1 1 2 4 6 5 5 7 9 10 16 22 23 25 27 28 29 28 27 29 31
16 17 21 23 25 23 20 22 24 29 34 34 38 36 36 42 32 21 13 3 3 8 15 24 23 27 27 27 34 30 23 18 17 31 38 35 30 21 16 16 12 8 9 10 9 6 2 6 16 11 6 10 9 8 9 8 6 4 4 5 5 4 4 3 4 4 3 3 2 2 3 6 4 4 8 6 3 7 14 15 21 28 29 30 31 31 31 30
16 17 20 22 23 21 18 21 26 29 33 38 40 35 34 39 37 27 10 2 6 6 12 21 20 23 28 30 34 27 17 9 13 33 40 33 31 25 16 10 5 6 11 9 5 3 2 7 12 9 7 9 7 7 8 9 6 3 5 7 7 5 4 4 3 2 0 3 3 2 3 6 5 5 8 4 5 8 10 10 18 26 28 30 33 36 36 33
17 17 20 22 22 22 21 24 27 28 32 39 39 36 35 35 36 28 9 2 8 8 12 17 17 23 28 32 38 24 8 12 18 29 39 33 27 25 17 8 4 5 8 7 3 2 4 8 7 8 9 7 7 7 7 10 7 3 5 10 9 7 7 6 4 3 3 2 3 2 2 4 5 6 5 2 4 9 9 8 14 22 27 30 33 36 38 37
16 18 20 23 23 26 28 25 24 31 38 38 35 38 37 35 37 26 6 4 7 9 11 11 13 26 30 30 35 17 10 24 18 18 35 31 22 19 13 10 10 10 10 8 5 4 6 10 11 12 11 7 8 7 9 12 7 3 5 8 7 6 5 5 4 4 1 3 5 3 2 2 6 6 4 3 4 9 10 9 11 18 26 29 31 33 35 38
15 18 21 25 25 29 30 25 26 33 39 37 32 36 36 33 31 16 3 4 4 6 12 14 13 24 30 22 17 14 17 17 9 20 36 26 18 13 7 11 15 13 10 7 5 4 4 11 15 13 8 7 6 5 10 11 5 3 7 7 5 4 3 2 4 3 2 1 7 5 2 3 5 5 3 2 4 7 9 8 10 18 24 26 28 30 31 35
15 17 22 25 27 30 26 27 35 33 32 36 33 33 39 32 20 10 6 4 3 3 13 16 13 23 30 16 5 11 14 6 10 26 26 17 17 11 9 16 16 10 4 2 4 3 1 5 12 8 6 8 7 5 8 11 8 8 7 6 6 4 4 2 1 3 2 5 7 3 2 2 5 5 4 4 5 7 8 8 9 16 24 27 27 27 26 26
17 19 22 27 31 30 26 33 43 36 29 30 32 36 38 21 7 5 6 3 3 4 11 14 13 21 26 16 6 11 10 7 15 22 13 9 12 9 12 14 9 6 3 2 3 2 5 4 5 4 7 10 8 3 3 6 10 8 4 4 4 1 2 2 3 2 3 6 4 1 2 2 5 6 4 6 6 5 7 7 8 13 21 23 18 15 16 16
19 21 23 30 34 31 34 39 41 40 33 25 29 39 27 7 3 4 3 4 5 7 10 14 16 18 21 18 10 10 7 7 15 18 12 9 8 9 11 9 8 7 5 7 5 1 2 1 2 1 7 12 9 4 2 3 4 5 4 5 4 1 0 2 2 0 4 5 3 1 1 3 7 7 7 10 9 9 11 13 15 17 23 23 16 12 13 13
22 24 25 32 37 38 43 40 35 39 37 31 36 31 11 4 7 4 3 4 4 5 9 16 19 21 23 18 10 9 6 6 14 16 13 10 7 8 5 3 8 6 4 9 7 3 2 4 3 3 4 11 12 8 4 2 5 7 6 6 6 4 4 6 4 1 4 4 2 1 1 3 5 5 10 13 14 18 19 19 21 22 25 26 23 20 18 16
24 27 30 34 40 46 45 38 36 38 37 38 34 18 7 9 5 5 6 4 2 6 8 14 19 20 19 13 9 10 6 5 14 15 12 10 8 7 5 6 7 3 5 8 5 7 7 3 6 5 3 9 11 8 6 6 6 7 5 5 5 5 5 5 4 3 4 3 3 2 1 3 3 3 8 12 15 21 22 21 22 24 26 27 27 27 25 22
27 29 34 35 42 49 44 40 41 37 38 38 20 7 11 10 2 5 7 4 4 7 8 14 19 18 13 10 10 8 3 4 12 11 11 11 10 11 10 10 9 5 7 8 4 4 6 3 3 1 3 10 10 5 5 8 5 3 2 4 4 5 5 3 3 4 3 2 3 2 3 4 4 6 10 9 12 16 21 24 22 23 26 24 25 29 29 27
29 31 35 38 45 48 45 47 44 37 41 32 9 4 10 5 2 6 7 7 9 12 15 15 15 13 9 7 9 6 2 4 10 8 8 10 10 11 11 8 9 8 8 8 4 3 5 1 4 2 3 8 10 8 6 7 6 2 2 4 3 4 6 4 1 1 3 3 4 2 4 5 3 8 10 6 7 11 14 16 17 20 20 19 23 26 26 25
28 31 35 41 47 46 47 51 45 41 43 25 6 6 5 1 4 7 9 13 15 18 18 13 11 12 10 7 9 10 6 6 9 8 8 9 9 12 12 8 10 12 9 7 3 3 6 2 3 1 3 2 4 7 4 1 4 5 5 6 3 3 3 3 2 1 1 5 4 0 4 5 3 6 7 7 8 11 10 8 11 16 17 18 22 22 19 19
28 31 37 45 49 47 48 50 46 46 38 15 7 9 5 3 6 9 13 15 16 18 14 8 8 11 14 13 12 15 14 11 11 9 9 9 7 14 18 11 11 16 13 7 4 2 5 4 3 1 3 1 2 5 3 3 3 5 5 5 4 3 2 2 2 3 3 5 5 3 3 4 5 6 5 6 8 9 10 9 7 11 14 18 21 20 18 17
31 29 35 46 49 48 49 49 50 47 27 8 9 10 4 5 7 14 24 20 15 16 12 8 8 8 13 16 14 16 15 13 14 11 10 9 5 13 22 12 9 18 18 11 6 3 4 5 2 2 1 1 2 2 7 2 3 4 3 2 2 2 4 3 3 4 3 3 3 3 4 4 6 6 5 8 10 8 10 11 8 10 13 14 15 15 15 14
33 23 28 44 48 48 52 53 48 34 13 6 11 8 5 8 8 18 33 29 16 12 10 11 12 10 12 14 13 13 9 10 16 10 7 10 4 6 18 13 8 13 13 8 5 4 3 3 3 0 2 2 2 3 8 8 4 3 3 4 2 1 2 2 1 3 3 3 3 2 5 6 5 5 8 10 12 13 11 8 8 11 13 13 13 14 14 11
33 18 22 41 47 53 58 47 27 14 7 8 10 9 9 11 10 17 31 32 20 8 7 12 14 13 13 14 12 12 8 8 14 9 3 9 7 3 14 18 14 14 10 5 5 5 2 3 5 3 1 3 3 3 4 7 7 6 5 6 6 4 4 3 4 1 2 2 4 2 6 9 5 5 8 10 12 12 9 6 8 12 14 14 14 13 12 9
30 14 19 40 52 62 58 28 9 11 11 10 9 11 12 11 12 17 23 26 17 4 3 10 12 10 11 12 12 13 11 9 13 12 5 11 11 4 12 22 23 21 14 7 5 4 3 5 5 2 3 4 3 3 1 2 3 5 3 4 5 5 5 5 5 3 0 2 2 3 5 8 4 7 8 10 11 9 8 7 10 14 14 12 11 9 8 7
28 15 26 49 63 70 48 12 9 16 11 10 13 13 14 13 14 17 18 18 11 4 5 8 9 10 9 9 12 12 10 8 12 13 5 6 8 5 15 28 28 21 12 6 6 6 4 4 4 1 2 3 4 3 2 3 2 3 2 2 5 4 4 5 5 4 3 3 2 2 6 7 2 3 7 12 14 14 14 11 13 17 13 7 6 8 8 8
30 27 40 56 70 70 35 6 13 15 8 15 18 12 11 11 15 19 17 15 10 7 8 8 10 12 11 12 15 17 15 9 9 10 4 3 5 9 24 36 31 20 11 9 11 10 5 3 5 5 2 3 4 4 2 2 1 3 2 3 5 6 7 5 3 3 2 6 7 4 9 9 4 2 3 7 9 13 16 12 10 14 10 5 6 7 6 5
26 25 38 56 72 64 31 15 18 11 9 18 18 13 11 8 16 27 24 18 14 12 10 10 12 12 10 13 15 15 14 8 6 7 3 3 4 6 22 36 32 21 13 14 17 13 6 3 5 7 7 7 7 5 6 4 2 2 3 7 8 10 11 7 4 4 7 7 9 8 11 7 2 4 4 5 5 8 11 8 7 11 10 7 6 6 4 3
18 11 18 36 53 48 32 29 25 11 10 17 14 14 15 10 13 24 25 16 10 9 6 5 9 10 9 13 12 11 11 5 7 8 3 6 4 3 20 34 30 22 17 20 25 16 3 2 6 8 10 12 11 6 5 10 9 7 8 10 11 10 11 8 5 7 8 3 6 13 13 8 3 4 5 5 5 7 8 7 7 7 6 5 5 4 3 3
17 10 11 16 23 24 21 24 19 10 12 15 12 12 17 15 11 16 19 11 7 10 6 3 10 11 12 16 13 12 12 5 9 14 10 9 3 2 17 26 22 24 23 23 28 16 3 4 10 10 13 10 4 4 8 13 14 15 12 11 10 9 10 9 9 13 6 3 8 10 7 9 8 3 6 7 6 7 8 9 7 4 2 3 4 3 3 5
13 12 22 25 16 10 14 16 13 12 15 14 11 14 20 20 15 14 14 7 7 12 7 4 13 16 19 22 15 12 13 6 8 14 12 11 7 6 11 11 13 25 25 20 23 14 3 9 12 12 14 5 5 4 9 12 10 9 11 13 11 12 13 14 18 18 9 6 15 8 8 11 10 6 7 8 8 11 9 7 6 5 6 7 7 6 6 7
9 11 26 34 21 11 16 18 14 15 17 13 9 13 20 22 20 16 12 9 9 13 11 11 17 20 22 22 15 13 14 10 10 13 13 16 15 12 12 6 8 17 17 13 12 6 3 7 6 9 10 2 6 2 6 9 7 5 9 13 12 13 17 19 23 19 12 15 19 7 3 9 6 6 9 12 14 14 9 9 11 13 14 12 11 11 10 11
15 17 21 23 15 15 21 19 15 15 15 13 8 10 16 21 22 17 12 15 16 14 15 18 21 23 23 23 19 16 21 23 22 21 19 19 17 13 12 9 5 6 7 7 5 0 2 3 2 5 5 3 4 2 4 5 7 6 8 10 12 16 19 20 19 12 9 16 17 7 10 12 6 8 13 16 16 12 11 16 18 17 17 15 14 15 16 19
29 35 36 22 9 14 20 14 14 15 12 12 10 10 14 18 21 18 12 17 21 19 21 24 24 21 19 22 23 22 29 30 24 22 23 20 16 10 5 6 10 10 7 6 5 2 3 2 3 6 5 3 2 5 6 6 6 3 5 10 16 18 16 14 13 10 11 16 12 8 12 9 6 9 14 14 13 13 16 20 21 21 20 18 19 22 24 26
39 44 50 34 13 14 18 11 13 14 11 12 12 13 16 18 20 20 13 12 16 19 22 22 21 17 15 22 27 26 26 19 11 17 24 21 17 16 14 17 21 17 10 6 3 3 5 5 3 5 7 3 2 5 7 6 6 1 10 15 19 16 11 9 10 12 15 13 9 11 13 7 5 7 8 7 9 14 20 25 27 29 27 24 25 26 26 26
Wind_Direction
240 240 232 207 193 198 205 205 206 206 205 205 203 200 197 197 199 199 199 195 195 194 191 191 190 188 186 187 188 191 193 195 197 195 189 181 184 195 196 200 200 197 198 201 200 193 188 190 194 195 201 219 273 249 28 18 7 358 87 89 202 185 193 189 182 196 180 240 220 192 184 181 177 172 176 179 187 183 176 183 192 193 199 194 181 165 177 177
235 236 237 227 205 194 200 205 206 204 204 205 203 200 197 197 199 200 200 197 194 193 192 190 189 187 184 183 184 186 190 195 198 199 197 187 193 206 199 197 195 194 197 202 210 211 203 188 194 203 209 218 268 276 236 0 6 26 111 85 220 203 216 203 194 199 198 277 203 195 193 191 195 176 173 179 178 168 175 198 206 204 209 206 194 180 183 183
231 234 235 237 223 197 194 202 206 206 203 203 202 200 200 198 198 198 199 198 194 192 193 191 189 188 183 180 179 181 185 189 197 202 201 195 201 208 202 198 193 191 193 200 212 215 214 191 185 195 193 182 222 261 245 354 0 35 85 288 236 234 264 259 249 235 247 269 205 197 200 201 203 181 179 183 168 173 193 203 206 211 213 213 206 190 189 189
228 233 232 233 230 209 195 195 204 207 201 199 201 202 202 200 197 197 198 197 194 191 192 191 190 189 185 181 176 180 184 189 207 206 201 198 200 202 200 200 197 195 195 203 212 207 206 191 182 189 188 166 218 265 325 53 21 350 105 193 246 317 318 291 303 293 271 264 237 200 189 205 203 185 186 173 144 218 225 210 210 215 211 210 207 195 191 192
222 226 225 227 230 224 202 191 199 207 202 197 200 202 200 199 197 196 198 197 193 191 191 189 189 189 187 185 182 184 183 184 221 210 203 201 202 204 203 203 201 196 193 201 206 200 198 192 183 179 180 162 146 257 81 75 45 312 241 235 273 305 287 296 327 335 293 257 235 194 182 200 191 189 195 180 168 223 225 218 217 219 214 212 210 199 192 194
216 219 221 224 226 230 214 195 194 201 205 201 197 199 197 196 196 195 198 196 193 190 189 187 185 186 186 186 187 187 184 168 221 209 207 203 204 209 207 208 207 201 194 200 203 196 193 183 172 166 159 127 135 228 161 99 46 319 264 277 307 322 296 298 314 321 306 245 212 196 199 189 175 197 205 197 207 218 228 229 220 217 217 217 214 202 196 197
216 218 219 224 227 230 224 210 197 192 202 205 199 197 195 195 195 196 198 195 192 190 187 186 182 182 182 182 187 190 194 199 339 210 207 204 206 209 209 207 207 204 199 204 205 195 188 176 173 167 152 108 166 204 239 234 327 242 262 328 332 327 313 309 311 310 300 246 221 206 210 187 178 199 208 213 221 218 233 241 221 216 214 214 213 209 207 205
216 221 219 224 232 233 229 228 215 191 197 205 202 198 195 195 194 195 198 196 192 189 186 183 180 180 181 181 184 191 203 208 232 227 202 202 205 207 210 207 204 206 207 216 219 212 198 178 180 173 149 131 180 173 142 226 262 225 252 326 324 318 316 317 309 302 290 252 229 205 206 196 190 193 219 226 225 218 226 240 222 215 212 214 213 214 214 211
209 218 218 222 230 237 237 235 226 194 193 200 199 198 195 193 194 195 196 195 191 188 186 182 180 181 182 185 184 190 205 204 211 242 195 199 204 208 212 210 206 206 208 217 220 219 214 191 192 195 182 161 166 155 136 185 240 256 302 312 311 311 316 316 301 293 275 233 211 200 203 195 195 210 251 239 231 223 225 232 226 215 213 215 216 218 217 214
203 209 212 216 222 233 239 237 229 198 192 199 197 195 195 192 193 195 195 194 190 187 184 181 180 181 183 186 182 189 201 197 205 220 191 196 201 207 212 212 210 206 204 207 212 218 220 215 210 206 197 164 156 152 152 177 241 322 318 303 299 309 312 304 287 285 245 210 202 196 176 174 187 185 250 244 235 225 225 229 228 217 216 218 220 221 219 217
201 205 209 211 214 224 232 238 234 206 197 205 200 194 194 193 193 194 194 192 188 185 183 181 181 182 185 187 183 192 197 194 203 211 191 194 198 203 207 207 207 204 202 200 207 218 219 224 211 198 194 170 158 156 176 186 249 315 327 310 305 324 312 275 262 261 215 201 204 182 120 92 155 185 240 242 234 222 221 226 229 221 220 221 222 221 219 220
202 204 206 210 211 216 223 232 235 220 211 207 202 200 196 193 193 194 193 190 187 184 181 181 184 185 186 190 195 199 197 196 203 209 198 194 195 196 197 197 196 198 203 204 204 211 214 215 205 196 185 163 151 141 206 192 239 324 348 339 316 340 318 259 238 228 198 185 187 156 111 279 193 230 238 242 238 221 217 223 229 225 220 219 220 220 220 221
201 200 200 207 212 214 220 228 235 235 231 220 203 202 201 195 194 194 191 189 186 183 180 182 186 189 187 192 204 205 203 202 204 206 201 194 194 192 189 190 192 192 202 214 212 206 206 210 208 200 177 160 151 129 181 181 169 321 13 44 327 345 311 252 208 198 172 160 174 151 210 264 241 239 235 238 236 218 213 221 226 224 218 216 217 219 220 221
202 199 197 203 210 213 219 227 235 240 238 241 222 203 201 197 195 194 191 188 185 180 179 182 185 188 190 194 204 207 210 209 205 205 205 193 189 190 187 187 191 191 197 210 212 203 197 201 205 192 170 162 161 143 130 139 115 324 324 20 350 317 283 285 214 172 154 183 182 151 219 254 253 249 239 238 239 222 215 220 224 223 218 216 218 219 222 223
207 202 200 202 204 209 215 223 231 237 232 236 238 210 199 197 196 193 190 187 183 178 177 182 186 186 187 195 202 204 206 206 200 200 205 191 184 186 187 186 188 191 193 197 203 201 193 194 193 175 154 149 154 143 71 23 61 63 221 280 358 201 267 306 261 178 161 182 177 149 209 258 267 264 251 239 235 227 222 221 223 223 220 219 220 222 225 227
211 205 205 202 198 205 212 217 226 232 236 231 233 220 197 194 194 192 190 186 180 177 178 182 187 184 181 190 194 196 199 198 191 190 195 186 181 182 182 182 184 189 189 190 199 196 189 187 181 163 145 137 142 128 74 140 203 47 192 232 286 207 266 312 284 203 157 125 176 187 207 257 271 266 259 238 228 222 224 224 223 222 222 222 224 226 228 230
214 208 207 200 197 205 210 216 222 227 238 234 229 235 204 192 191 191 188 184 180 179 181 184 186 185 186 186 186 192 194 192 186 182 181 179 181 181 177 175 178 184 180 179 186 180 178 176 165 157 143 128 138 131 135 198 212 198 72 226 235 217 226 281 283 238 140 108 189 218 218 242 253 258 279 259 230 220 223 227 226 225 224 225 227 229 230 232
217 212 209 203 201 203 207 215 220 225 234 236 231 236 219 194 190 188 183 180 177 177 181 183 183 184 207 200 191 192 192 189 184 179 173 174 181 183 177 172 171 170 159 159 171 168 168 166 147 144 122 106 141 155 187 206 180 173 148 88 262 243 220 253 271 235 137 104 183 190 226 252 261 268 265 281 256 228 230 233 233 233 231 231 230 231 233 234
217 214 213 210 206 201 204 211 216 224 228 234 230 225 232 200 187 184 180 177 172 171 178 177 178 181 214 196 191 189 189 187 184 179 174 171 176 183 179 171 164 157 147 144 168 169 157 140 131 172 166 160 177 177 186 177 149 157 158 147 231 256 240 243 258 268 160 131 197 196 220 248 254 264 258 253 262 241 242 243 240 240 238 238 236 236 237 238
219 217 214 214 211 202 203 206 211 219 218 230 227 222 230 196 181 177 171 176 178 175 182 179 180 177 115 174 178 178 179 180 183 179 174 169 169 171 165 160 154 149 150 143 163 171 157 159 189 193 181 173 183 176 157 152 143 140 132 157 240 267 275 268 276 313 347 162 231 214 222 250 251 261 259 236 259 254 246 246 243 243 242 242 243 242 242 243
222 219 217 215 213 205 203 202 207 212 210 225 219 221 227 185 167 165 162 175 188 182 186 182 181 179 121 166 174 171 163 165 179 176 171 168 165 161 154 153 147 144 160 139 130 155 166 189 196 176 166 162 170 163 150 151 132 124 130 184 268 248 260 273 278 319 346 177 267 263 233 259 256 263 266 236 244 255 247 245 248 248 246 246 246 246 246 246
225 218 217 216 213 208 205 201 204 207 209 223 214 220 230 207 180 178 167 170 191 188 190 181 181 179 156 169 177 173 161 149 169 173 169 167 166 163 156 157 153 142 147 133 121 138 180 210 186 161 152 146 153 159 168 188 176 159 137 134 268 261 277 289 301 333 359 171 285 346 227 261 262 264 266 238 231 253 256 254 257 258 255 253 251 251 250 249
230 219 216 216 214 210 208 203 201 204 207 218 217 219 227 228 185 170 173 160 180 191 185 175 176 164 153 160 171 172 168 162 169 173 170 169 170 166 159 157 148 137 144 153 149 157 185 217 179 162 148 142 155 166 170 196 202 194 156 145 244 271 316 306 331 343 356 117 264 328 270 272 269 272 275 249 236 250 259 258 260 261 260 261 260 258 257 254
234 221 216 215 214 212 210 206 201 202 206 213 222 226 227 227 195 162 169 135 149 191 179 172 168 160 155 155 166 169 168 168 172 173 171 169 166 162 160 155 140 144 167 165 159 163 174 178 162 152 147 149 156 171 172 187 207 209 186 165 195 242 239 266 320 317 311 4 53 11 317 285 266 267 272 260 239 246 255 256 257 256 256 261 262 261 260 256
234 223 219 212 213 214 210 211 208 202 204 213 224 229 227 227 225 200 178 100 152 169 164 170 167 165 163 160 168 169 159 159 169 172 173 169 162 156 157 159 152 161 171 154 149 168 194 166 155 144 153 158 156 181 183 179 193 222 207 175 183 229 255 287 324 341 6 338 340 28 296 273 295 278 252 265 303 260 256 256 255 254 254 254 256 258 259 257
238 226 221 213 209 209 208 218 215 201 205 216 221 225 223 222 230 233 221 171 196 160 151 169 168 170 172 166 166 161 150 157 170 171 172 170 166 156 149 159 155 157 160 146 138 179 191 162 152 145 158 160 168 194 191 173 172 225 204 170 184 223 256 270 284 321 357 271 301 61 212 260 311 286 247 269 325 285 269 268 260 257 255 251 252 254 256 256
244 231 224 218 207 203 207 215 212 202 209 216 217 222 220 215 225 232 227 208 203 157 150 168 166 172 174 165 162 161 157 156 157 171 172 168 167 163 157 160 131 144 154 134 153 212 144 144 150 154 156 165 188 197 191 173 166 217 180 156 174 205 231 238 225 223 241 276 315 28 160 258 281 259 259 322 315 292 283 276 265 258 255 253 252 252 252 253
244 237 231 224 211 205 209 214 211 206 209 212 217 221 214 211 222 227 226 217 184 132 145 160 157 166 164 160 162 157 141 148 147 175 172 163 164 167 169 171 148 151 163 150 178 207 148 164 179 169 170 188 190 179 171 167 173 222 151 136 163 181 201 203 175 206 281 7 294 280 141 241 263 269 313 352 269 275 278 271 264 258 254 254 254 253 252 251
241 241 236 228 220 212 214 220 215 210 211 213 220 218 206 203 212 215 247 222 155 109 152 150 144 152 148 150 156 135 135 146 140 166 167 163 166 167 172 169 148 144 164 157 165 186 173 191 185 168 178 192 164 153 164 165 177 178 125 95 87 87 84 122 152 162 75 315 251 234 181 236 263 274 304 312 245 251 265 265 258 259 257 254 255 256 256 255
242 243 235 232 229 219 221 226 217 212 213 216 221 207 190 189 194 203 238 209 112 114 146 144 149 148 145 145 136 136 141 120 121 150 161 166 164 155 137 148 140 131 151 105 156 195 353 183 181 171 193 183 150 142 164 165 154 132 109 80 69 56 42 45 67 94 105 259 255 225 169 217 271 272 228 217 223 216 236 257 261 262 260 257 257 259 261 261
243 244 235 232 233 223 222 225 217 210 210 221 222 195 180 178 179 211 221 155 104 157 140 139 152 150 150 149 144 160 149 109 135 145 154 163 156 144 136 143 136 117 130 158 187 284 24 109 174 192 186 165 136 122 142 151 146 128 109 108 105 41 24 21 3 55 196 250 287 307 108 152 239 258 231 238 255 225 217 240 257 260 261 262 260 259 263 263
247 245 237 230 232 228 221 223 218 210 211 222 207 184 173 175 202 207 196 145 167 187 152 144 152 154 156 151 145 158 139 123 151 154 159 162 160 165 159 165 164 143 171 188 174 6 36 185 246 175 180 170 150 142 74 67 140 146 135 132 131 106 41 236 261 268 233 250 298 294 125 203 239 252 256 264 275 260 237 233 244 254 263 271 270 263 267 267
251 245 240 230 229 229 223 222 223 217 216 210 192 178 168 217 199 160 142 179 184 173 157 153 155 157 155 150 146 144 123 141 160 160 165 161 160 174 177 195 173 151 168 170 153 147 187 291 255 151 188 188 171 165 169 175 176 172 161 157 160 151 170 209 214 249 255 257 274 247 201 262 274 267 243 243 251 254 253 251 254 259 266 273 274 271 271 268
255 247 245 235 227 228 226 222 224 225 217 203 188 174 186 209 185 120 152 202 167 139 154 148 145 150 149 143 149 145 122 155 165 162 161 156 160 180 197 215 195 124 109 149 162 169 168 235 211 178 185 184 177 178 170 144 158 182 163 145 167 169 174 194 195 211 237 260 280 272 223 214 213 259 242 239 255 263 266 267 266 266 268 272 275 276 273 268
261 250 246 241 230 227 227 221 221 223 214 205 195 176 190 193 163 141 155 175 157 135 137 138 137 143 143 136 156 160 116 158 171 163 161 167 176 182 184 195 190 143 131 161 176 163 167 230 252 198 146 163 168 176 138 118 143 213 131 129 196 188 146 125 180 186 172 240 259 227 232 216 208 281 277 258 267 272 267 267 267 265 267 271 274 276 274 273
267 255 249 246 233 226 223 219 220 217 205 203 217 208 190 180 182 170 148 156 162 143 138 142 143 143 137 141 165 168 68 145 168 163 170 178 184 189 187 190 185 170 159 158 141 140 163 239 327 24 119 163 170 169 161 160 172 161 144 184 200 150 124 115 201 63 85 224 251 199 252 289 312 291 292 290 282 277 268 266 267 268 270 270 271 273 275 275
268 259 253 245 233 226 220 215 216 210 200 201 232 207 186 179 181 155 148 157 154 149 148 150 155 151 145 147 167 168 137 137 164 168 172 179 191 193 191 196 186 180 178 156 144 192 152 112 327 80 127 194 166 146 140 110 133 137 185 196 140 97 108 118 179 350 96 228 266 326 246 284 292 269 309 332 286 272 274 268 268 272 269 263 267 271 272 275
263 258 253 243 231 221 215 213 209 200 196 203 223 201 182 186 178 151 154 154 148 155 157 156 160 155 157 160 167 171 158 150 171 176 170 183 206 189 184 196 183 179 187 162 134 204 135 104 309 288 140 181 60 122 143 8 55 136 178 183 143 150 195 135 168 191 184 231 273 311 280 266 223 231 306 309 263 259 282 289 280 271 261 257 263 268 272 278
255 253 251 242 226 214 211 207 200 194 193 207 209 203 171 161 176 162 158 152 153 164 162 165 168 154 165 166 161 169 168 163 171 173 176 190 217 189 184 187 174 178 184 167 150 192 133 119 249 294 135 156 56 145 186 193 33 72 108 165 162 155 176 174 164 168 175 219 254 304 313 262 224 209 216 255 261 255 264 273 272 270 272 272 272 278 287 286
248 245 249 236 217 207 203 197 193 193 195 209 197 189 150 152 173 172 164 158 160 176 173 169 167 158 164 163 155 165 170 162 170 178 189 182 182 199 189 181 160 168 170 149 146 173 123 111 161 201 353 165 178 211 187 172 158 140 146 176 192 135 134 153 156 135 137 177 207 281 287 262 243 205 191 220 252 255 253 260 264 273 288 295 297 302 304 292
242 240 243 226 209 197 189 184 189 194 193 209 197 177 165 160 163 173 172 167 164 180 185 172 171 165 160 158 155 163 161 156 174 184 192 178 175 209 194 180 157 152 147 125 153 171 129 111 134 133 138 176 222 254 188 177 178 169 175 187 178 148 122 167 230 250 89 174 181 190 270 268 241 200 202 210 230 250 272 293 276 278 291 299 307 310 304 296
239 241 220 206 196 185 178 172 186 193 196 204 184 168 165 156 161 173 178 175 168 160 168 169 172 162 157 162 159 162 161 159 179 185 189 192 188 192 187 171 155 157 160 146 165 171 112 106 113 133 194 200 253 295 227 224 163 133 173 191 156 147 140 163 220 245 153 234 143 111 279 275 216 179 207 227 238 261 289 292 281 289 301 307 315 319 314 317
231 211 184 187 184 177 172 170 192 190 201 186 170 171 166 157 168 173 176 179 173 142 152 164 163 158 162 163 153 158 160 157 185 187 169 189 191 167 165 158 151 159 162 137 161 171 139 112 100 71 306 303 309 337 14 358 55 123 217 153 139 166 148 143 186 184 185 226 147 100 272 269 240 171 209 237 254 270 275 276 282 291 302 317 330 341 335 325
203 171 163 174 179 175 170 182 185 184 195 177 175 179 165 162 172 170 172 183 180 161 159 165 169 169 169 161 160 169 169 162 191 192 153 157 183 162 160 159 157 165 177 176 174 174 172 141 116 115 64 1 337 332 309 274 207 192 192 143 151 142 116 119 140 125 226 221 165 181 255 253 272 300 248 255 270 274 272 275 277 278 287 312 336 347 342 325
179 161 156 166 173 175 177 186 177 175 181 176 179 175 157 160 179 175 173 177 179 171 161 169 173 162 155 160 164 173 174 163 174 180 138 128 155 161 164 165 167 173 179 170 160 159 164 154 149 148 148 173 193 216 221 195 165 194 170 172 179 155 148 160 131 154 231 217 162 198 242 242 294 323 321 325 308 281 277 275 262 262 273 301 328 337 332 337
162 161 155 160 169 173 183 188 179 170 173 172 174 176 165 155 177 181 176 172 176 165 133 134 150 134 143 161 156 168 184 170 148 155 140 148 157 193 174 172 174 174 163 153 153 152 124 146 183 181 184 192 190 185 144 123 143 196 188 177 182 172 168 158 131 197 219 181 186 222 236 240 276 317 312 306 282 269 270 258 250 260 281 312 329 327 329 358
164 173 159 156 166 169 182 191 184 167 168 170 168 172 170 159 162 180 180 177 167 150 107 86 147 145 160 164 158 172 180 154 148 159 158 159 128 67 172 177 177 168 156 154 159 152 85 193 195 202 210 205 167 133 132 139 173 195 178 170 178 173 170 167 197 215 180 117 238 228 209 233 241 248 268 271 263 260 260 259 266 274 286 318 322 318 338 343
173 166 161 158 156 164 178 183 181 167 166 175 172 166 169 167 162 168 172 168 156 151 127 132 170 171 171 169 167 170 166 148 165 167 158 159 139 112 165 189 190 173 163 161 169 159 150 202 197 199 209 204 68 125 155 157 180 178 164 178 177 169 178 190 215 220 177 198 243 210 165 226 231 208 236 245 242 249 260 278 286 266 260 288 302 294 298 300
146 136 158 161 155 161 167 161 167 170 170 181 185 173 171 166 164 168 161 146 162 172 164 165 179 180 175 174 170 164 167 170 180 182 172 167 162 152 160 186 212 189 173 165 177 167 161 198 193 181 189 69 46 139 160 153 154 141 170 184 173 178 194 202 218 222 203 227 245 227 217 257 231 205 237 244 248 259 276 280 269 264 270 283 289 283 281 282
154 145 154 158 151 160 165 160 165 171 175 184 184 179 176 166 165 168 163 163 170 177 176 177 182 180 177 178 176 177 186 186 184 186 177 167 168 167 169 172 170 173 165 161 178 13 147 184 78 118 143 24 26 90 88 123 144 155 187 191 185 196 206 213 223 220 212 241 252 269 288 275 220 208 240 249 258 274 279 269 266 270 275 279 282 286 291 292
162 157 156 154 143 165 170 165 164 165 177 190 180 171 174 171 168 163 169 185 181 175 183 185 180 176 176 182 186 192 195 192 186 179 171 166 164 153 148 162 148 142 146 156 160 110 110 146 56 97 145 259 322 100 88 78 90 121 214 210 202 205 208 216 222 205 208 233 241 252 267 259 195 210 234 244 257 264 264 266 270 273 273 273 276 280 284 285
156 158 161 161 153 167 171 164 168 171 174 181 177 171 172 175 173 165 167 197 198 192 193 183 168 166 176 189 199 202 194 183 158 155 161 157 142 123 118 137 147 151 151 142 147 134 122 131 115 129 162 234 327 119 119 87 75 234 237 216 204 203 204 214 229 222 217 221 221 231 241 228 171 197 215 227 238 241 248 255 260 265 266 266 268 270 273 273
Height
1425 1426 1428 1430 1433 1438 1443 1446 1450 1453 1457 1459 1463 1466 1470 1473 1476 1479 1482 1485 1487 1490 1493 1496 1499 1502 1504 1507 1510 1513 1515 1518 1519 1520 1521 1523 1525 1528 1529 1530 1532 1534 1536 1538 1539 1540 1541 1542 1544 1547 1549 1550 1551 1551 1552 1553 1553 1553 1556 1560 1560 1562 1560 1556 1557 1556 1554 1552 1551 1552 1552 1553 1555 1556 1557 1558 1559 1559 1560 1560 1561 1561 1562 1562 1563 1564 1566 1567
1425 1425 1427 1429 1431 1434 1440 1444 1448 1451 1454 1457 1460 1464 1468 1471 1474 1478 1481 1483 1486 1489 1492 1495 1499 1501 1504 1507 1510 1512 1515 1517 1519 1519 1520 1523 1525 1527 1529 1530 1532 1534 1536 1538 1539 1540 1541 1541 1544 1547 1550 1551 1553 1553 1553 1554 1554 1555 1559 1561 1560 1559 1556 1552 1553 1552 1552 1552 1551 1552 1552 1553 1554 1555 1556 1558 1558 1559 1560 1560 1560 1561 1561 1562 1563 1564 1565 1566
1424 1425 1427 1429 1430 1432 1437 1442 1446 1448 1452 1456 1459 1462 1466 1469 1473 1476 1479 1482 1485 1488 1491 1494 1498 1501 1504 1507 1509 1512 1515 1517 1518 1518 1520 1523 1525 1526 1528 1530 1531 1533 1535 1537 1539 1540 1541 1541 1543 1547 1550 1552 1554 1554 1554 1554 1555 1557 1559 1561 1558 1556 1554 1552 1552 1552 1552 1552 1552 1552 1552 1553 1554 1554 1555 1556 1558 1559 1559 1558 1559 1559 1559 1561 1562 1563 1564 1565
1423 1425 1427 1428 1429 1431 1433 1438 1443 1447 1451 1454 1457 1460 1464 1468 1471 1474 1478 1481 1484 1487 1490 1493 1497 1500 1504 1506 1510 1512 1515 1518 1516 1516 1520 1522 1524 1526 1527 1529 1530 1532 1535 1537 1538 1540 1541 1542 1544 1547 1550 1552 1554 1555 1555 1554 1556 1557 1558 1559 1557 1556 1555 1553 1552 1553 1552 1552 1552 1552 1553 1553 1553 1555 1555 1555 1558 1559 1556 1555 1555 1556 1557 1559 1561 1562 1563 1563
1422 1424 1426 1426 1427 1429 1431 1435 1440 1445 1449 1452 1455 1459 1462 1466 1469 1473 1476 1479 1482 1486 1489 1492 1496 1499 1503 1506 1509 1511 1516 1519 1514 1514 1519 1521 1523 1525 1526 1528 1529 1532 1535 1537 1538 1540 1541 1542 1544 1547 1550 1552 1554 1556 1556 1554 1556 1557 1556 1556 1555 1555 1555 1553 1553 1553 1552 1552 1552 1552 1552 1551 1552 1554 1553 1553 1554 1554 1552 1552 1553 1555 1556 1557 1558 1560 1561 1562
1421 1423 1424 1425 1426 1428 1431 1434 1437 1442 1446 1449 1453 1457 1460 1465 1468 1471 1475 1478 1481 1484 1488 1491 1495 1499 1503 1506 1509 1510 1513 1515 1512 1512 1517 1519 1522 1524 1525 1527 1528 1531 1534 1536 1538 1539 1541 1542 1545 1548 1550 1552 1555 1556 1556 1555 1556 1557 1555 1555 1555 1555 1555 1553 1553 1553 1552 1552 1551 1552 1551 1550 1552 1552 1552 1552 1550 1549 1550 1551 1553 1555 1556 1557 1557 1558 1559 1560
1419 1421 1423 1425 1426 1427 1430 1433 1434 1439 1445 1448 1452 1455 1459 1463 1466 1470 1473 1477 1480 1484 1487 1491 1495 1498 1502 1505 1509 1510 1510 1510 1509 1511 1515 1518 1521 1523 1525 1526 1527 1530 1533 1536 1538 1539 1540 1542 1545 1548 1550 1553 1555 1556 1556 1555 1556 1557 1556 1554 1554 1554 1554 1553 1553 1552 1552 1551 1550 1551 1551 1551 1550 1551 1553 1550 1548 1550 1551 1552 1553 1554 1556 1556 1557 1557 1558 1559
1418 1420 1423 1424 1425 1427 1429 1431 1432 1436 1442 1447 1450 1453 1457 1461 1465 1468 1472 1476 1479 1483 1487 1490 1494 1497 1501 1504 1506 1509 1508 1508 1510 1510 1512 1516 1519 1521 1523 1525 1526 1529 1532 1535 1537 1539 1540 1542 1545 1547 1549 1552 1553 1554 1555 1556 1556 1556 1555 1555 1554 1552 1552 1551 1551 1551 1550 1550 1551 1551 1551 1551 1551 1552 1552 1547 1547 1551 1552 1552 1552 1553 1554 1555 1556 1556 1557 1558
1416 1418 1421 1423 1424 1426 1428 1430 1432 1434 1439 1444 1448 1452 1455 1459 1463 1466 1470 1474 1478 1483 1486 1490 1493 1497 1500 1503 1505 1506 1505 1507 1510 1510 1511 1514 1517 1519 1522 1523 1525 1528 1531 1534 1536 1538 1539 1542 1544 1545 1547 1549 1551 1553 1554 1556 1556 1555 1555 1554 1553 1551 1550 1550 1549 1549 1549 1549 1550 1550 1551 1551 1551 1552 1549 1545 1548 1551 1551 1552 1552 1552 1553 1554 1555 1556 1556 1557
1414 1417 1419 1422 1423 1426 1428 1430 1432 1433 1437 1442 1446 1450 1453 1457 1461 1465 1469 1473 1477 1482 1486 1489 1493 1497 1499 1501 1504 1504 1503 1507 1510 1510 1511 1513 1515 1518 1520 1523 1525 1527 1530 1533 1534 1536 1538 1541 1543 1544 1546 1548 1551 1553 1554 1555 1554 1554 1554 1553 1552 1550 1549 1549 1549 1549 1548 1548 1549 1550 1552 1551 1552 1553 1548 1545 1548 1549 1550 1551 1551 1551 1552 1552 1554 1555 1556 1556
1412 1415 1417 1420 1423 1425 1427 1429 1431 1433 1437 1442 1446 1449 1451 1455 1459 1464 1468 1472 1476 1481 1485 1489 1492 1496 1498 1500 1501 1502 1502 1506 1508 1509 1511 1512 1515 1517 1519 1522 1524 1527 1529 1531 1533 1535 1538 1540 1542 1544 1547 1548 1550 1552 1553 1553 1553 1553 1553 1552 1550 1549 1548 1548 1548 1548 1548 1548 1548 1549 1551 1551 1553 1552 1546 1544 1547 1547 1548 1550 1550 1550 1551 1552 1552 1554 1555 1555
1410 1413 1415 1419 1421 1424 1427 1428 1430 1433 1436 1441 1445 1448 1450 1454 1458 1462 1466 1471 1475 1480 1484 1488 1492 1495 1498 1500 1500 1501 1503 1505 1507 1509 1511 1512 1515 1517 1519 1521 1523 1526 1529 1531 1533 1535 1537 1539 1542 1544 1545 1547 1550 1552 1552 1552 1553 1553 1553 1552 1550 1549 1548 1546 1547 1547 1547 1547 1548 1549 1552 1553 1551 1548 1543 1545 1547 1546 1548 1548 1549 1549 1550 1550 1551 1552 1554 1554
1409 1411 1413 1417 1420 1423 1425 1427 1429 1433 1435 1439 1443 1446 1449 1452 1456 1460 1465 1470 1474 1479 1483 1487 1491 1495 1498 1499 1499 1501 1503 1504 1506 1508 1510 1511 1514 1516 1518 1520 1523 1526 1528 1531 1532 1534 1537 1539 1541 1543 1544 1545 1548 1550 1550 1551 1553 1553 1554 1554 1553 1553 1549 1545 1546 1546 1546 1547 1547 1549 1554 1552 1547 1543 1542 1545 1546 1545 1546 1546 1547 1548 1548 1549 1550 1551 1552 1553
1407 1409 1412 1415 1418 1421 1424 1426 1428 1431 1435 1437 1440 1443 1446 1450 1454 1458 1463 1469 1474 1479 1483 1487 1491 1494 1497 1498 1499 1501 1503 1504 1505 1507 1509 1510 1513 1516 1518 1520 1522 1525 1528 1531 1533 1534 1536 1539 1541 1543 1544 1545 1547 1549 1550 1552 1553 1554 1555 1555 1557 1559 1551 1544 1546 1545 1545 1547 1546 1548 1554 1550 1543 1542 1543 1545 1545 1545 1545 1545 1546 1546 1547 1548 1548 1550 1551 1552
1405 1408 1410 1413 1416 1419 1423 1425 1426 1429 1432 1435 1438 1441 1444 1447 1451 1457 1462 1468 1473 1478 1482 1486 1489 1492 1496 1497 1498 1500 1501 1502 1503 1506 1508 1509 1511 1514 1517 1519 1522 1525 1528 1531 1532 1534 1536 1538 1540 1542 1544 1545 1546 1549 1551 1553 1553 1555 1557 1558 1560 1561 1553 1545 1545 1545 1544 1546 1546 1548 1552 1548 1542 1540 1542 1543 1544 1544 1544 1544 1545 1545 1546 1546 1547 1548 1549 1550
1404 1407 1409 1411 1415 1418 1421 1424 1425 1427 1431 1434 1438 1440 1442 1445 1450 1455 1461 1467 1473 1477 1481 1484 1487 1490 1493 1495 1496 1497 1499 1500 1502 1505 1507 1508 1510 1513 1516 1519 1522 1525 1527 1530 1532 1534 1536 1538 1539 1541 1543 1545 1547 1549 1553 1556 1555 1556 1559 1559 1559 1560 1556 1548 1545 1545 1544 1545 1546 1547 1549 1546 1541 1539 1540 1541 1542 1543 1543 1543 1543 1543 1544 1545 1546 1547 1547 1548
1403 1406 1408 1411 1414 1417 1420 1423 1425 1427 1430 1434 1438 1440 1442 1445 1449 1455 1461 1467 1471 1475 1478 1481 1484 1490 1492 1492 1492 1492 1493 1497 1500 1503 1506 1508 1511 1513 1516 1518 1521 1524 1526 1529 1532 1534 1536 1537 1539 1541 1542 1544 1546 1549 1556 1561 1559 1559 1560 1559 1559 1560 1558 1552 1545 1544 1545 1544 1546 1547 1546 1543 1538 1538 1540 1540 1541 1542 1542 1541 1542 1542 1543 1544 1544 1545 1545 1546
1402 1404 1407 1410 1413 1416 1419 1422 1424 1428 1430 1433 1438 1440 1443 1445 1449 1455 1460 1464 1469 1474 1479 1481 1485 1490 1487 1483 1483 1484 1489 1495 1498 1502 1504 1507 1510 1513 1515 1517 1520 1523 1525 1529 1532 1534 1536 1537 1538 1541 1543 1546 1547 1548 1556 1560 1558 1559 1559 1558 1559 1557 1557 1554 1546 1544 1545 1544 1545 1547 1547 1543 1539 1538 1539 1540 1541 1541 1541 1541 1542 1542 1542 1542 1542 1543 1543 1544
1400 1403 1406 1409 1411 1414 1417 1421 1423 1427 1430 1433 1437 1441 1446 1448 1450 1452 1453 1455 1459 1463 1466 1468 1471 1474 1468 1468 1475 1482 1489 1494 1497 1501 1503 1505 1509 1513 1515 1517 1519 1521 1524 1528 1532 1533 1534 1537 1540 1541 1543 1546 1545 1545 1549 1552 1552 1554 1556 1556 1558 1556 1554 1552 1547 1546 1546 1545 1545 1546 1546 1542 1539 1537 1537 1539 1540 1540 1541 1541 1541 1540 1540 1540 1541 1541 1542 1542
1399 1401 1404 1406 1409 1412 1415 1419 1422 1426 1430 1433 1436 1441 1443 1441 1442 1444 1446 1450 1449 1448 1451 1452 1457 1461 1460 1464 1474 1480 1487 1493 1495 1498 1501 1504 1507 1511 1515 1518 1520 1522 1523 1526 1530 1532 1533 1538 1539 1539 1540 1542 1542 1543 1545 1548 1548 1551 1554 1556 1558 1558 1554 1549 1547 1547 1546 1546 1545 1545 1544 1541 1539 1537 1537 1539 1540 1539 1540 1539 1539 1538 1538 1539 1539 1539 1539 1539
1396 1399 1401 1404 1407 1410 1414 1417 1421 1425 1429 1431 1434 1436 1434 1430 1431 1434 1438 1448 1451 1449 1451 1454 1458 1462 1463 1465 1470 1475 1483 1490 1493 1496 1500 1504 1506 1509 1514 1516 1519 1523 1524 1524 1528 1531 1533 1537 1538 1536 1537 1539 1541 1543 1545 1546 1548 1550 1554 1557 1558 1559 1556 1549 1548 1548 1547 1547 1545 1546 1546 1542 1540 1537 1536 1538 1539 1537 1537 1537 1536 1536 1536 1537 1536 1537 1536 1537
1395 1396 1399 1402 1405 1408 1412 1416 1420 1424 1428 1430 1431 1430 1428 1427 1429 1428 1430 1440 1448 1449 1452 1455 1459 1463 1464 1466 1469 1474 1480 1487 1493 1495 1498 1502 1505 1507 1511 1515 1518 1523 1525 1525 1528 1533 1536 1537 1537 1536 1536 1538 1541 1543 1544 1546 1547 1550 1554 1557 1559 1559 1556 1550 1549 1550 1549 1548 1546 1547 1546 1541 1538 1536 1535 1537 1537 1535 1534 1534 1533 1533 1534 1534 1534 1533 1534 1535
1393 1394 1397 1400 1403 1407 1411 1414 1418 1422 1426 1427 1427 1424 1425 1429 1431 1432 1434 1439 1445 1449 1451 1453 1457 1461 1464 1467 1470 1473 1476 1481 1487 1492 1495 1499 1502 1504 1508 1513 1518 1522 1525 1525 1527 1533 1537 1535 1533 1535 1535 1537 1541 1542 1544 1546 1547 1549 1552 1557 1559 1559 1557 1552 1550 1551 1551 1550 1548 1547 1546 1540 1536 1535 1532 1532 1533 1532 1531 1532 1531 1532 1532 1531 1531 1531 1532 1533
1390 1393 1396 1398 1402 1406 1409 1413 1416 1419 1422 1424 1423 1422 1426 1431 1433 1436 1440 1442 1445 1447 1449 1453 1456 1459 1463 1467 1470 1473 1475 1478 1482 1488 1493 1495 1499 1503 1506 1510 1516 1522 1524 1523 1526 1529 1531 1530 1530 1533 1535 1536 1541 1542 1543 1547 1549 1549 1551 1555 1557 1557 1558 1556 1553 1551 1549 1550 1549 1547 1547 1539 1533 1533 1531 1528 1531 1530 1528 1529 1528 1528 1529 1528 1528 1529 1529 1529
1388 1392 1394 1397 1401 1405 1409 1412 1412 1415 1420 1421 1420 1422 1427 1432 1435 1440 1442 1442 1444 1447 1450 1453 1455 1458 1462 1467 1470 1472 1475 1480 1482 1485 1490 1493 1496 1501 1505 1508 1512 1519 1522 1523 1527 1529 1529 1529 1530 1533 1535 1536 1540 1542 1543 1545 1549 1551 1551 1552 1554 1556 1557 1557 1555 1552 1550 1551 1550 1550 1551 1541 1532 1532 1530 1527 1529 1529 1527 1527 1525 1524 1525 1525 1525 1525 1525 1526
1386 1390 1392 1396 1400 1404 1408 1408 1408 1414 1417 1417 1418 1423 1428 1432 1438 1442 1441 1441 1441 1442 1445 1448 1451 1454 1458 1463 1468 1472 1477 1482 1483 1485 1489 1493 1495 1497 1504 1509 1510 1516 1519 1522 1527 1528 1528 1528 1529 1533 1535 1537 1541 1542 1541 1542 1549 1553 1549 1548 1552 1555 1557 1558 1556 1554 1554 1552 1551 1553 1553 1546 1536 1529 1526 1528 1529 1527 1526 1525 1523 1522 1522 1522 1522 1521 1522 1523
1384 1387 1391 1394 1398 1402 1404 1403 1407 1412 1412 1413 1417 1422 1427 1433 1439 1440 1442 1441 1435 1433 1439 1443 1447 1449 1453 1459 1464 1469 1474 1476 1482 1487 1487 1491 1496 1496 1501 1506 1509 1514 1516 1520 1527 1526 1525 1529 1531 1533 1535 1538 1540 1540 1539 1540 1547 1550 1544 1544 1549 1552 1556 1556 1556 1556 1555 1553 1553 1553 1553 1552 1543 1528 1525 1530 1528 1523 1523 1523 1521 1519 1518 1518 1518 1518 1518 1519
1383 1386 1389 1392 1396 1399 1400 1402 1407 1408 1408 1412 1417 1421 1425 1432 1439 1440 1441 1434 1423 1423 1432 1439 1443 1445 1452 1459 1462 1465 1466 1467 1477 1487 1487 1490 1495 1496 1500 1502 1504 1510 1512 1516 1524 1524 1522 1526 1528 1529 1533 1535 1534 1534 1535 1538 1544 1545 1542 1543 1546 1550 1553 1554 1555 1556 1556 1558 1555 1551 1553 1554 1544 1529 1528 1531 1526 1522 1520 1519 1518 1516 1515 1515 1514 1514 1515 1516
1383 1385 1387 1391 1394 1396 1399 1403 1405 1405 1409 1414 1417 1418 1422 1431 1438 1438 1436 1424 1415 1419 1426 1434 1443 1445 1452 1460 1463 1465 1466 1468 1473 1481 1487 1491 1494 1496 1499 1500 1502 1508 1512 1513 1518 1521 1520 1521 1522 1525 1529 1531 1530 1532 1534 1536 1541 1542 1542 1545 1547 1551 1553 1555 1555 1553 1557 1562 1554 1548 1551 1552 1540 1526 1526 1528 1524 1522 1518 1516 1515 1513 1511 1512 1511 1511 1512 1512
1382 1383 1386 1390 1391 1394 1399 1401 1400 1403 1410 1414 1417 1418 1420 1429 1433 1430 1425 1415 1412 1419 1424 1431 1440 1442 1448 1457 1464 1467 1467 1470 1473 1479 1487 1490 1492 1495 1497 1501 1504 1508 1513 1515 1517 1519 1520 1520 1522 1524 1526 1527 1529 1532 1534 1536 1538 1540 1542 1544 1548 1552 1554 1556 1556 1554 1560 1560 1551 1548 1551 1554 1546 1527 1521 1522 1518 1516 1514 1512 1512 1510 1508 1508 1508 1508 1509 1509
1380 1382 1385 1387 1388 1393 1397 1394 1395 1403 1409 1411 1415 1418 1419 1425 1427 1421 1415 1409 1412 1420 1422 1428 1436 1439 1443 1451 1460 1465 1466 1470 1474 1479 1485 1488 1491 1494 1495 1500 1505 1510 1518 1518 1518 1520 1521 1522 1524 1523 1523 1525 1529 1532 1535 1536 1536 1538 1540 1542 1548 1553 1555 1557 1557 1559 1563 1558 1553 1557 1558 1558 1550 1528 1515 1515 1514 1514 1514 1511 1509 1507 1505 1505 1506 1507 1507 1507
1377 1380 1382 1384 1386 1390 1391 1389 1395 1404 1407 1410 1413 1414 1415 1418 1420 1415 1412 1412 1413 1415 1415 1420 1429 1435 1440 1447 1456 1462 1465 1470 1473 1476 1480 1483 1487 1488 1488 1491 1494 1505 1517 1518 1519 1523 1522 1523 1523 1522 1522 1523 1526 1532 1537 1538 1537 1538 1540 1543 1552 1560 1562 1563 1563 1565 1564 1557 1557 1563 1560 1553 1541 1523 1514 1513 1512 1512 1511 1509 1507 1505 1503 1503 1505 1505 1505 1505
1373 1376 1378 1380 1382 1384 1385 1390 1399 1402 1405 1410 1409 1409 1411 1409 1406 1406 1412 1416 1411 1409 1411 1414 1420 1428 1434 1445 1455 1460 1464 1469 1471 1474 1478 1480 1484 1487 1487 1487 1487 1492 1503 1510 1518 1524 1525 1525 1522 1521 1522 1520 1521 1528 1533 1535 1535 1536 1536 1539 1548 1558 1566 1569 1567 1567 1564 1557 1557 1562 1559 1548 1532 1518 1512 1509 1507 1506 1505 1505 1504 1503 1502 1501 1502 1503 1503 1503
1369 1372 1373 1375 1378 1379 1383 1392 1397 1398 1404 1408 1403 1404 1406 1401 1397 1401 1410 1417 1411 1409 1412 1412 1420 1430 1435 1444 1453 1455 1461 1470 1469 1471 1477 1481 1486 1488 1487 1487 1487 1488 1495 1505 1513 1516 1521 1521 1517 1516 1517 1516 1518 1521 1523 1527 1531 1532 1529 1531 1538 1543 1551 1559 1560 1559 1557 1553 1557 1562 1554 1536 1521 1512 1507 1505 1504 1503 1501 1502 1502 1501 1500 1499 1499 1500 1500 1500
1363 1366 1368 1370 1371 1373 1382 1390 1393 1395 1403 1404 1397 1395 1394 1390 1394 1398 1404 1413 1413 1412 1416 1416 1421 1431 1439 1447 1452 1451 1456 1466 1469 1470 1475 1477 1479 1481 1480 1480 1484 1486 1492 1501 1507 1510 1514 1513 1511 1513 1513 1513 1517 1519 1519 1525 1532 1534 1530 1530 1534 1532 1535 1548 1556 1554 1553 1552 1552 1554 1544 1527 1516 1508 1503 1504 1504 1501 1500 1499 1498 1498 1497 1498 1497 1496 1496 1497
1358 1361 1363 1362 1363 1369 1379 1385 1389 1394 1399 1400 1394 1388 1384 1383 1389 1393 1397 1404 1408 1409 1416 1420 1421 1429 1441 1449 1452 1452 1453 1460 1467 1470 1474 1475 1475 1476 1474 1475 1479 1481 1483 1490 1498 1505 1510 1513 1513 1514 1513 1513 1515 1517 1518 1520 1526 1533 1533 1531 1530 1528 1529 1542 1556 1560 1559 1553 1546 1543 1535 1524 1519 1509 1500 1501 1501 1498 1497 1496 1495 1495 1495 1496 1495 1493 1494 1494
1354 1355 1356 1354 1356 1366 1374 1380 1387 1391 1395 1397 1391 1383 1383 1385 1386 1389 1391 1395 1400 1403 1406 1413 1415 1421 1435 1446 1449 1450 1452 1458 1466 1467 1471 1474 1472 1471 1472 1472 1474 1476 1476 1480 1488 1495 1502 1512 1516 1513 1513 1514 1514 1515 1517 1517 1519 1526 1530 1527 1526 1532 1533 1536 1546 1555 1557 1552 1543 1540 1535 1526 1523 1514 1501 1499 1498 1494 1493 1494 1494 1494 1493 1493 1492 1491 1492 1492
1351 1353 1349 1343 1350 1362 1370 1377 1383 1387 1391 1393 1387 1383 1386 1387 1385 1386 1388 1391 1397 1401 1402 1406 1408 1410 1421 1432 1438 1443 1445 1452 1461 1462 1466 1469 1462 1459 1463 1467 1469 1473 1474 1475 1483 1488 1494 1508 1517 1514 1513 1516 1514 1516 1519 1519 1519 1519 1522 1521 1522 1531 1536 1536 1541 1546 1551 1550 1540 1537 1539 1532 1524 1514 1501 1497 1497 1493 1492 1491 1492 1492 1491 1491 1490 1490 1491 1491
1349 1350 1338 1332 1346 1358 1364 1372 1379 1384 1386 1383 1382 1382 1383 1385 1385 1385 1385 1388 1393 1397 1399 1401 1404 1408 1414 1419 1426 1436 1439 1443 1451 1454 1456 1459 1456 1451 1453 1458 1464 1470 1472 1472 1478 1485 1488 1499 1514 1515 1514 1515 1515 1515 1517 1519 1521 1520 1520 1521 1521 1524 1528 1531 1536 1538 1542 1546 1540 1536 1535 1523 1514 1510 1501 1496 1495 1493 1492 1491 1489 1490 1490 1489 1489 1489 1489 1490
1346 1343 1326 1324 1341 1351 1359 1370 1375 1376 1376 1373 1374 1377 1378 1381 1385 1385 1383 1383 1387 1392 1394 1395 1399 1405 1412 1417 1423 1432 1436 1440 1446 1448 1447 1449 1452 1451 1451 1454 1461 1467 1472 1474 1477 1483 1486 1492 1506 1515 1516 1515 1514 1513 1512 1513 1517 1518 1519 1522 1522 1522 1525 1528 1532 1533 1534 1537 1540 1540 1530 1511 1504 1504 1498 1495 1494 1489 1489 1490 1489 1490 1489 1489 1489 1488 1488 1488
1341 1334 1317 1319 1335 1344 1354 1364 1364 1365 1369 1370 1370 1371 1373 1376 1380 1383 1384 1381 1383 1387 1389 1391 1394 1398 1405 1414 1421 1428 1434 1440 1443 1444 1445 1445 1447 1449 1447 1449 1456 1463 1470 1475 1476 1480 1485 1491 1503 1513 1515 1513 1511 1512 1512 1511 1511 1513 1514 1517 1518 1520 1524 1528 1533 1535 1533 1533 1536 1539 1529 1505 1495 1499 1495 1493 1492 1488 1488 1490 1489 1489 1489 1489 1488 1488 1487 1487
1332 1321 1309 1315 1326 1335 1345 1352 1355 1359 1364 1364 1364 1365 1369 1372 1376 1380 1381 1382 1384 1385 1387 1389 1392 1396 1402 1407 1414 1420 1426 1433 1438 1438 1439 1439 1438 1441 1443 1445 1452 1457 1463 1470 1474 1477 1483 1491 1503 1512 1513 1512 1513 1515 1516 1514 1511 1511 1513 1514 1515 1518 1519 1524 1532 1533 1533 1535 1537 1542 1533 1503 1487 1493 1494 1490 1489 1489 1491 1491 1489 1488 1488 1488 1488 1487 1487 1486
1317 1310 1307 1311 1317 1326 1338 1344 1349 1354 1356 1358 1362 1363 1364 1368 1373 1377 1378 1380 1382 1383 1386 1389 1391 1396 1401 1405 1412 1419 1422 1429 1434 1432 1434 1438 1438 1439 1442 1445 1451 1458 1462 1466 1471 1474 1478 1486 1499 1511 1514 1512 1511 1512 1515 1516 1514 1512 1513 1513 1515 1517 1516 1520 1526 1527 1528 1530 1531 1539 1530 1499 1485 1491 1492 1490 1491 1490 1490 1491 1490 1488 1487 1487 1487 1486 1486 1486
1305 1304 1304 1304 1310 1319 1325 1327 1335 1345 1351 1354 1359 1361 1361 1364 1367 1370 1374 1376 1377 1379 1382 1386 1387 1390 1394 1400 1405 1410 1414 1422 1431 1432 1433 1437 1439 1440 1441 1443 1447 1453 1457 1458 1461 1466 1472 1481 1493 1506 1516 1517 1516 1516 1513 1513 1514 1511 1511 1514 1513 1514 1518 1521 1523 1526 1525 1521 1522 1529 1519 1494 1487 1491 1489 1490 1493 1490 1489 1490 1489 1488 1486 1486 1487 1486 1486 1487
1293 1294 1296 1299 1305 1310 1313 1316 1325 1340 1348 1349 1354 1358 1360 1362 1363 1362 1364 1368 1370 1372 1376 1381 1382 1385 1391 1397 1401 1406 1408 1411 1422 1432 1434 1435 1438 1441 1442 1443 1445 1448 1451 1454 1457 1461 1469 1477 1482 1490 1503 1510 1509 1504 1495 1497 1509 1511 1509 1511 1508 1508 1513 1513 1518 1524 1518 1513 1515 1515 1502 1487 1486 1489 1488 1490 1492 1489 1488 1488 1488 1487 1486 1486 1486 1486 1486 1486
1274 1275 1282 1291 1300 1306 1311 1316 1321 1331 1340 1343 1349 1355 1355 1357 1362 1361 1361 1364 1368 1370 1372 1377 1381 1386 1394 1398 1403 1410 1410 1409 1415 1426 1431 1433 1436 1439 1439 1441 1444 1447 1451 1455 1458 1462 1468 1474 1474 1474 1480 1480 1478 1478 1476 1483 1498 1502 1502 1505 1506 1506 1507 1508 1515 1515 1506 1509 1510 1497 1487 1488 1489 1488 1488 1488 1489 1488 1487 1486 1486 1486 1485 1486 1486 1486 1486 1486
1261 1262 1266 1274 1288 1300 1308 1314 1318 1324 1332 1335 1339 1345 1349 1351 1356 1360 1362 1364 1366 1368 1373 1377 1379 1385 1392 1396 1402 1407 1410 1412 1414 1418 1425 1429 1432 1438 1440 1441 1444 1447 1449 1452 1455 1459 1466 1471 1471 1469 1469 1467 1468 1473 1476 1480 1486 1489 1495 1503 1504 1506 1507 1508 1508 1500 1496 1507 1505 1488 1486 1492 1490 1488 1487 1486 1486 1487 1486 1485 1485 1485 1485 1486 1485 1486 1486 1486
1251 1255 1258 1263 1275 1289 1299 1308 1316 1323 1330 1332 1331 1335 1340 1344 1348 1352 1358 1363 1366 1366 1372 1379 1380 1381 1384 1387 1392 1400 1408 1414 1415 1415 1419 1424 1429 1436 1441 1444 1444 1444 1445 1449 1451 1453 1459 1463 1464 1466 1469 1471 1474 1477 1477 1479 1483 1487 1494 1499 1501 1505 1506 1504 1498 1490 1492 1498 1490 1483 1487 1489 1487 1487 1485 1485 1485 1484 1483 1485 1485 1485 1485 1485 1485 1486 1486 1486
1243 1250 1259 1263 1270 1283 1296 1307 1316 1322 1327 1331 1331 1330 1332 1336 1341 1344 1348 1358 1365 1365 1366 1373 1376 1377 1381 1383 1386 1395 1402 1405 1409 1411 1410 1413 1419 1425 1434 1441 1442 1442 1443 1445 1448 1450 1453 1458 1462 1466 1470 1475 1481 1483 1480 1480 1484 1489 1493 1496 1499 1501 1499 1495 1488 1486 1492 1490 1480 1483 1490 1488 1488 1488 1484 1484 1484 1483 1484 1485 1484 1485 1485 1485 1485 1485 1485 1484
1236 1240 1251 1262 1271 1281 1292 1303 1313 1320 1324 1328 1330 1330 1330 1332 1336 1339 1343 1347 1354 1359 1361 1364 1367 1370 1375 1378 1380 1385 1385 1381 1386 1392 1394 1400 1408 1412 1419 1425 1430 1439 1444 1445 1449 1451 1452 1460 1466 1468 1474 1480 1484 1486 1485 1484 1484 1487 1491 1495 1497 1496 1493 1490 1486 1490 1496 1490 1484 1491 1493 1487 1486 1486 1483 1483 1483 1483 1484 1482 1481 1483 1484 1484 1484 1483 1483 1482
1235 1239 1246 1258 1272 1281 1288 1296 1305 1313 1320 1323 1325 1326 1329 1331 1332 1336 1342 1342 1343 1347 1348 1349 1357 1365 1372 1376 1375 1372 1369 1367 1372 1379 1384 1392 1399 1404 1410 1415 1422 1434 1443 1446 1449 1449 1453 1463 1468 1469 1475 1482 1485 1488 1490 1488 1487 1489 1491 1492 1490 1488 1487 1487 1487 1490 1490 1486 1489 1496 1488 1479 1481 1482 1480 1481 1482 1482 1481 1479 1480 1481 1482 1483 1482 1481 1481 1480
1233 1241 1246 1253 1267 1280 1286 1294 1302 1307 1311 1315 1318 1320 1323 1328 1329 1332 1339 1345 1344 1342 1341 1343 1352 1362 1370 1373 1368 1362 1365 1373 1379 1384 1389 1395 1399 1402 1408 1414 1420 1428 1436 1444 1449 1449 1452 1459 1464 1468 1473 1480 1489 1491 1487 1487 1492 1490 1480 1473 1475 1480 1483 1485 1485 1483 1481 1482 1487 1486 1475 1470 1475 1477 1477 1480 1480 1479 1477 1477 1478 1478 1479 1481 1480 1479 1478 1477